Waarnemingen

Advertentie
Mijn weer
Pantelleria, Italië (16470): temperatuur & dauwpunt: 19.02.2018 06:00:00 - 25.02.2018 06:00:00 (CET)Pantelleria, Italië (16470): windsnelheid: 19.02.2018 06:00:00 - 25.02.2018 06:00:00 (CET)Pantelleria, Italië (16470): windrichting: 19.02.2018 06:00:00 - 25.02.2018 06:00:00 (CET)Pantelleria, Italië (16470): luchtdruk: 19.02.2018 06:00:00 - 25.02.2018 06:00:00 (CET)Pantelleria, Italië (16470): zicht: 19.02.2018 06:00:00 - 25.02.2018 06:00:00 (CET)Pantelleria, Italië (16470): Zonneschijnduur: 19.02.2018 06:00:00 - 25.02.2018 06:00:00 (CET)
Datum & Tijd tt [°C] td [°C] ff [km/u] ff [kn] dd ppp [hPa] vv [km] sd [min]
25.02.2018 06:00:00 - - - - - - - -
25.02.2018 05:00:00 - - - - - - - -
25.02.2018 04:00:00 - - - - - - - -
25.02.2018 03:00:00 - - - - - - - -
25.02.2018 02:00:00 - - - - - - - -
25.02.2018 01:00:00 - - - - - - - -
25.02.2018 00:00:00 - - - - - - - -
24.02.2018 23:00:00 - - - - - - - -
24.02.2018 22:00:00 - - - - - - - -
24.02.2018 21:00:00 - - - - - - - -
24.02.2018 20:00:00 - - - - - - - -
24.02.2018 19:00:00 11,2 9,0 5 3 OZO 1007,8 15 0
24.02.2018 18:00:00 11,4 9,0 9 5 ZZO 1007,8 15 0
24.02.2018 17:00:00 11,8 9,5 15 8 ZZO 1007,9 20 6
24.02.2018 16:00:00 12,2 9,4 15 8 Z 1008,1 20 42
24.02.2018 15:00:00 12,4 9,0 21 11 Z 1008,5 20 6
24.02.2018 14:00:00 12,8 8,5 21 11 Z 1008,8 20 60
24.02.2018 13:00:00 12,8 8,5 16 9 ZZW 1009,5 20 60
24.02.2018 12:00:00 11,4 8,4 13 7 WZW 1009,8 20 60
24.02.2018 11:00:00 11,2 8,2 15 8 ZW 1009,8 20 60
24.02.2018 10:00:00 11,0 8,0 18 10 WZW 1009,7 20 54
24.02.2018 09:00:00 10,0 7,4 18 10 W 1009,7 20 24
24.02.2018 08:00:00 9,2 6,6 13 7 WZW 1009,6 20 0
24.02.2018 07:00:00 8,8 6,2 16 9 WZW 1008,4 15 0
24.02.2018 06:00:00 - - - - - - - -
24.02.2018 05:00:00 - - - - - - - -
24.02.2018 04:00:00 - - - - - - - -
24.02.2018 03:00:00 - - - - - - - -
24.02.2018 02:00:00 - - - - - - - -
24.02.2018 01:00:00 - - - - - - - -
24.02.2018 00:00:00 - - - - - - - -
23.02.2018 23:00:00 - - - - - - - -
23.02.2018 22:00:00 - - - - - - - -
23.02.2018 21:00:00 - - - - - - - -
23.02.2018 20:00:00 - - - - - - - -
23.02.2018 19:00:00 8,8 6,3 28 15 W 1003,5 8 0
23.02.2018 18:00:00 9,0 6,6 28 15 WNW 1002,8 12 12
23.02.2018 17:00:00 10,2 7,6 34 18 W 1002,0 15 42
23.02.2018 16:00:00 10,0 7,4 28 15 WNW 1001,2 18 42
23.02.2018 15:00:00 11,0 8,2 28 15 WNW 1000,6 10 6
23.02.2018 14:00:00 8,2 5,7 22 12 WNW 1000,7 12 0
23.02.2018 13:00:00 9,4 6,8 21 11 WNW 1000,5 10 0
23.02.2018 12:00:00 9,0 6,4 16 9 WNW 1000,7 12 0
23.02.2018 11:00:00 8,0 5,5 21 11 WNW 1000,6 8 0
23.02.2018 10:00:00 7,4 4,9 22 12 NW 999,7 7 0
23.02.2018 09:00:00 7,4 4,9 26 14 NNW 999,4 7 0
23.02.2018 08:00:00 7,0 4,5 24 13 NNW 998,8 8 0
23.02.2018 07:00:00 7,0 4,7 22 12 NNW 999,4 4,0 0
23.02.2018 06:00:00 - - - - - - - -
23.02.2018 05:00:00 - - - - - - - -
23.02.2018 04:00:00 - - - - - - - -
23.02.2018 03:00:00 - - - - - - - -
23.02.2018 02:00:00 - - - - - - - -
23.02.2018 01:00:00 - - - - - - - -
23.02.2018 00:00:00 - - - - - - - -
22.02.2018 23:00:00 - - - - - - - -
22.02.2018 22:00:00 - - - - - - - -
22.02.2018 21:00:00 - - - - - - - -
22.02.2018 20:00:00 - - - - - - - -
22.02.2018 19:00:00 9,6 7,2 2 1 Z 1003,1 15 0
22.02.2018 18:00:00 10,0 7,4 5 3 NW 1002,1 18 0
22.02.2018 17:00:00 10,4 7,8 9 5 NNW 1002,1 18 12
22.02.2018 16:00:00 10,2 7,8 9 5 NW 1002,2 18 6
22.02.2018 15:00:00 10,6 8,2 15 8 NW 1001,8 15 6
22.02.2018 14:00:00 9,8 7,4 11 6 NW 1002,0 15 6
22.02.2018 13:00:00 10,0 7,6 15 8 WNW 1002,2 12 0
22.02.2018 12:00:00 10,0 7,6 16 9 W 1002,6 10 0
22.02.2018 11:00:00 10,0 7,6 9 5 WNW 1001,6 12 0
22.02.2018 10:00:00 10,0 7,6 15 8 WZW 1001,4 3,0 0
22.02.2018 09:00:00 11,2 8,8 39 21 ZZO 1000,2 10 0
22.02.2018 08:00:00 11,0 8,6 35 19 Z 1000,3 10 0
22.02.2018 07:00:00 11,2 9,0 34 18 Z 1000,5 10 0
22.02.2018 06:00:00 - - - - - - - -
22.02.2018 05:00:00 - - - - - - - -
22.02.2018 04:00:00 - - - - - - - -
22.02.2018 03:00:00 - - - - - - - -
22.02.2018 02:00:00 - - - - - - - -
22.02.2018 01:00:00 - - - - - - - -
22.02.2018 00:00:00 - - - - - - - -
21.02.2018 23:00:00 - - - - - - - -
21.02.2018 22:00:00 - - - - - - - -
21.02.2018 21:00:00 - - - - - - - -
21.02.2018 20:00:00 - - - - - - - -
21.02.2018 19:00:00 9,8 7,4 4 2 ZZW 1003,5 10 0
21.02.2018 18:00:00 10,0 7,6 8 4 W 1003,4 15 0
21.02.2018 17:00:00 11,0 8,4 9 5 NW 1003,3 20 60
21.02.2018 16:00:00 11,0 8,4 15 8 NW 1003,4 20 60
21.02.2018 15:00:00 11,0 8,0 15 8 W 1003,6 20 48
21.02.2018 14:00:00 11,0 8,0 18 10 WNW 1003,6 20 60
21.02.2018 13:00:00 11,0 8,1 16 9 NNW 1003,6 20 60
21.02.2018 12:00:00 10,4 7,8 16 9 WNW 1003,7 20 60
21.02.2018 11:00:00 10,2 7,6 22 12 NW 1003,7 20 60
21.02.2018 10:00:00 10,0 7,4 22 12 NW 1003,1 20 12
21.02.2018 09:00:00 9,4 6,8 28 15 W 1002,6 15 12
21.02.2018 08:00:00 8,8 6,2 22 12 WNW 1002,5 15 0
21.02.2018 07:00:00 8,4 5,9 18 10 WNW 1001,7 10 0
21.02.2018 06:00:00 - - - - - - - -
21.02.2018 05:00:00 - - - - - - - -
21.02.2018 04:00:00 - - - - - - - -
21.02.2018 03:00:00 - - - - - - - -
21.02.2018 02:00:00 - - - - - - - -
21.02.2018 01:00:00 - - - - - - - -
21.02.2018 00:00:00 - - - - - - - -
20.02.2018 23:00:00 - - - - - - - -
20.02.2018 22:00:00 - - - - - - - -
20.02.2018 21:00:00 - - - - - - - -
20.02.2018 20:00:00 - - - - - - - -
20.02.2018 19:00:00 10,0 7,8 16 9 WZW 1005,7 8 0
20.02.2018 18:00:00 11,0 8,6 21 11 W 1006,4 10 0
20.02.2018 17:00:00 11,6 8,6 15 8 WZW 1006,5 15 12
20.02.2018 16:00:00 11,8 7,5 21 11 W 1007,3 20 24
20.02.2018 15:00:00 11,8 8,1 22 12 W 1007,7 20 54
20.02.2018 14:00:00 12,0 9,0 18 10 W 1008,6 20 60
20.02.2018 13:00:00 12,2 9,2 21 11 W 1009,5 20 60
20.02.2018 12:00:00 12,0 9,4 18 10 W 1010,4 20 54
20.02.2018 11:00:00 10,0 7,8 16 9 WNW 1011,1 15 0
20.02.2018 10:00:00 10,2 8,0 21 11 W 1011,3 20 0
20.02.2018 09:00:00 9,8 7,6 22 12 W 1011,6 15 0
20.02.2018 08:00:00 10,0 7,8 24 13 W 1011,6 15 0
20.02.2018 07:00:00 9,8 7,6 22 12 WZW 1011,6 15 0
20.02.2018 06:00:00 - - - - - - - -
20.02.2018 05:00:00 - - - - - - - -
20.02.2018 04:00:00 - - - - - - - -
20.02.2018 03:00:00 - - - - - - - -
20.02.2018 02:00:00 - - - - - - - -
20.02.2018 01:00:00 - - - - - - - -
20.02.2018 00:00:00 - - - - - - - -
19.02.2018 23:00:00 - - - - - - - -
19.02.2018 22:00:00 - - - - - - - -
19.02.2018 21:00:00 - - - - - - - -
19.02.2018 20:00:00 - - - - - - - -
19.02.2018 19:00:00 11,2 8,6 18 10 NW 1013,1 10 0
19.02.2018 18:00:00 11,2 8,8 11 6 NW 1013,1 12 0
19.02.2018 17:00:00 11,4 9,0 16 9 NNW 1013,1 12 24
19.02.2018 16:00:00 11,8 9,4 21 11 NW 1013,0 12 0
19.02.2018 15:00:00 11,8 9,4 21 11 NNW 1013,0 10 0
19.02.2018 14:00:00 11,8 9,4 22 12 NW 1013,1 10 0
19.02.2018 13:00:00 11,8 9,5 24 13 WNW 1013,5 10 18
19.02.2018 12:00:00 11,0 8,8 26 14 WNW 1013,6 10 0
19.02.2018 11:00:00 12,0 9,7 24 13 W 1014,4 10 42
19.02.2018 10:00:00 11,0 8,7 28 15 W 1014,7 10 18
19.02.2018 09:00:00 10,8 8,5 24 13 WZW 1014,7 10 18
19.02.2018 08:00:00 10,8 8,5 22 12 W 1014,6 10 12
19.02.2018 07:00:00 10,4 8,2 22 12 W 1014,6 10 0
19.02.2018 06:00:00 - - - - - - - -

tt = temperatuur
td = dauwpunt
ff = windsnelheid
dd = windrichting
ppp = luchtdruk
vv = zicht
sd = Zonneschijnduur

Weerstations in de omgeving